Вернуться в каталог

KUIPER-00483

АктивенСвязьLEO
NORAD 68878·PAYLOAD·🇺🇸 United States

Запущен Apr 28, 2026 с Cape Canaveral Space Force Station

Loading…

Ближайшие Пролёты (ближайшие 24 часа)

TLE

СвежийSource: CelesTrak SupGP

Эпоха: Sep 14, 2026, 23:39 UTC

1 68878C 26095Q   26257.98587963 -.00005244  00000+0 -68557-3 0  2573
2 68878  51.8981 216.0357 0001776 334.3645  72.3908 14.79987989    15

Отслеживайте KUIPER-00483 в реальном времени с AllMySat

Download on the App Store